This demonstration page uses our WeatherBlox Daily Observations layout. Learn more.

Left ArrowRight Arrow

47.50024, -111.30081

Hourly Observations for May 19, 2021

Temp ( °F °C ) Dew Point ( °F °C ) Humidity (%) Winds ( mph kmh ) Pressure ( in mb ) Visibility ( mi km ) Precip ( " mm )
12:53 am 00:53 Mostly Clear 48 8.9 21 -6.1 34 34 W 5 7 29.87 1011 10 16 0.00 0.00
1:53 am 01:53 Cloudy 49 9.4 20 -6.7 32 32 WNW 6 9 29.86 1011 10 16 0.00 0.00
2:53 am 02:53 Mostly Cloudy 46 7.8 23 -5 40 40 E 5 7 29.88 1012 10 16 0.00 0.00
3:53 am 03:53 Cloudy 46 7.8 22 -5.6 38 38 ESE 7 11 29.90 1013 10 16 0.00 0.00
4:53 am 04:53 Cloudy 46 7.8 22 -5.6 38 38 E 7 11 29.92 1013 10 16 0.00 0.00
5:53 am 05:53 Partly Cloudy 45 7.2 21 -6.1 39 39 ENE 8 13 29.94 1014 10 16 0.00 0.00
6:53 am 06:53 Partly Cloudy 44 6.7 25 -3.9 47 47 E 6 9 29.96 1015 10 16 0.00 0.00
7:53 am 07:53 Cloudy 46 7.8 25 -3.9 44 44 ESE 5 7 29.96 1015 10 16 0.00 0.00
8:53 am 08:53 Cloudy 48 8.9 19 -7.2 32 32 NNE 5 7 29.98 1015 10 16 0.00 0.00
9:53 am 09:53 Cloudy 49 9.4 19 -7.2 31 31 NNE 7 11 29.98 1015 10 16 0.00 0.00
10:53 am 10:53 Cloudy 52 11.1 20 -6.7 28 28 NE 8 13 29.97 1015 10 16 0.00 0.00
11:53 am 11:53 Cloudy 50 10 22 -5.6 33 33 NNE 9 15 29.97 1015 10 16 0.00 0.00
12:53 pm 12:53 Cloudy 48 8.9 26 -3.3 42 42 ESE 7 11 29.98 1015 10 16 0.00 0.00
1:53 pm 13:53 Cloudy 50 10 28 -2.2 43 43 NNE 9 15 29.95 1014 10 16 0.00 0.00
2:53 pm 14:53 Mostly Cloudy 49 9.4 28 -2.2 44 44 N 14 22 29.95 1014 10 16 0.00 0.00
3:53 pm 15:53 Cloudy 50 10 31 -0.6 48 48 N 17 28 29.93 1014 10 16 0.00 0.00
4:53 pm 16:53 Cloudy 48 8.9 31 -0.6 52 52 NNW 18 30 29.95 1014 10 16 0.00 0.00
5:53 pm 17:53 Cloudy with Light Rain 42 5.6 35 1.7 76 76 NNW 15 24 29.97 1015 8 13 0.01 0.25
6:53 pm 18:53 Cloudy 41 5 35 1.7 79 79 N 12 19 29.99 1016 10 16 0.05 1.27
7:53 pm 19:53 Cloudy with Light Rain 39 3.9 36 2.2 89 89 N 13 20 30.00 1016 7 11 0.06 1.52
8:15 pm 20:15 Cloudy with Light Rain 39 3.9 36 2.2 89 89 N 14 22 29.99 1016 7 11 0.04 1.02
8:53 pm 20:53 Cloudy with Light Rain 38 3.3 35 1.7 89 89 N 15 24 30.00 1016 8 13 0.10 2.54
9:21 pm 21:21 Cloudy with Rain 37 2.8 35 1.7 93 93 N 14 22 30.03 1017 6 10 0.06 1.52
9:53 pm 21:53 Cloudy with Rain 37 2.8 34 1.1 89 89 N 12 19 30.04 1017 7 11 0.09 2.29
10:53 pm 22:53 Cloudy with Rain 36 2.2 34 1.1 93 93 N 13 20 30.03 1017 6 10 0.10 2.54
11:53 pm 23:53 Cloudy with Light Rain 37 2.8 35 1.7 93 93 N 13 20 30.00 1016 6 10 0.08 2.03

Powered by AerisWeather